Find Kosmos-2433

NORAD ID: 32277 Int'l Des: 2007-052 Owner: KVR/IACG Country: RU Constellation: GLONASS operational
MEOCIRCULAR

現在のビュー

3D地球を読み込み中...

About Kosmos-2433

Kosmos-2433 (NORAD 32277) is a GLONASS constellation satellite launched Oct 26, 2007 by KVR/IACG of RU. It operates in MEO, CIRCULAR orbit with a mass of 1450.00 kg.

Kosmos-2433について

説明を読み込み中...

次回通過

Passes for default location (London). Set your location on the main map for personalized predictions.

高度履歴

Loading altitude history...

軌道要素

1 32277U 07052C 26172.53242542 -.00000068 00000-0 00000-0 0 9995
2 32277 65.5872 315.7106 0015776 171.2479 193.6485 2.13209193145316
Epoch: Jun 21, 2026 • Age: 47 hours

現在のステータス

高度 19146.6 km
速度 3.95 km/s
衛星直下点 45.94°N, 97.34°W
打ち上げ日 Oct 26, 2007
運用期間 18.6 years
タイプ other

技術仕様

分類 Payload
質量 1450.00 kg
乾燥質量 1200.00 kg
総質量 1450.00 kg
長さ 4.00 m
直径 1.50 m
スパン 7.80 m
形状 Cyl + Ant + 2 Pan
製造者 RESH
バスタイプ Uragan
フェーズステータス In Orbit
所有者/国 KVR/IACG/RU

Most Searched